Time,TemperatureF,DewpointF,PressureIn,WindDirection,WindDirectionDegrees,WindSpeedMPH,WindSpeedGustMPH,Humidity,HourlyPrecipIn,Conditions,Clouds,dailyrainin,SoftwareType,DateUTC
2013-02-20 00:00:00,24.1,18.9,29.73,ENE,68,0.0,1.1,80,0.00,,,0.00,WUHU216HW,2013-02-20 07:00:00,
2013-02-20 00:05:00,23.9,18.7,29.73,ENE,68,0.0,0.2,80,0.00,,,0.00,WUHU216HW,2013-02-20 07:05:00,
2013-02-20 00:10:00,23.8,18.3,29.73,ENE,68,0.0,0.0,79,0.00,,,0.00,WUHU216HW,2013-02-20 07:10:00,
2013-02-20 00:15:00,23.8,18.3,29.73,East,90,1.1,2.0,79,0.00,,,0.00,WUHU216HW,2013-02-20 07:15:00,
2013-02-20 00:20:00,23.6,18.1,29.73,East,90,0.9,2.0,79,0.00,,,0.00,WUHU216HW,2013-02-20 07:20:00,
2013-02-20 00:25:00,23.4,17.9,29.73,East,90,1.1,1.1,79,0.00,,,0.00,WUHU216HW,2013-02-20 07:25:00,
2013-02-20 00:30:00,23.4,18.2,29.73,ESE,113,0.4,1.3,80,0.00,,,0.00,WUHU216HW,2013-02-20 07:30:00,
2013-02-20 00:35:00,23.4,18.2,29.73,ENE,68,2.5,2.5,80,0.00,,,0.00,WUHU216HW,2013-02-20 07:35:00,
2013-02-20 00:40:00,23.4,18.2,29.73,NE,45,1.3,3.1,80,0.00,,,0.00,WUHU216HW,2013-02-20 07:40:00,
2013-02-20 00:45:00,23.4,18.2,29.73,NE,45,0.9,3.1,80,0.00,,,0.00,WUHU216HW,2013-02-20 07:45:00,
2013-02-20 00:51:00,23.4,18.2,29.73,ESE,113,0.0,1.6,80,0.00,,,0.00,WUHU216HW,2013-02-20 07:51:00,
2013-02-20 00:56:00,23.2,18.0,29.73,ESE,113,0.4,1.3,80,0.00,,,0.00,WUHU216HW,2013-02-20 07:56:00,
2013-02-20 01:05:00,22.9,17.9,29.73,ESE,113,0.0,0.9,81,0.00,,,0.00,WUHU216HW,2013-02-20 08:05:00,
2013-02-20 01:10:00,22.7,18.0,29.73,NNE,23,0.4,1.1,82,0.00,,,0.00,WUHU216HW,2013-02-20 08:10:00,
2013-02-20 01:15:00,22.7,18.3,29.73,NNE,23,1.1,1.6,83,0.00,,,0.00,WUHU216HW,2013-02-20 08:15:00,
2013-02-20 01:20:00,22.5,17.8,29.73,NNE,23,1.1,1.6,82,0.00,,,0.00,WUHU216HW,2013-02-20 08:20:00,
2013-02-20 01:25:00,22.5,17.8,29.74,NE,45,1.6,1.6,82,0.00,,,0.00,WUHU216HW,2013-02-20 08:25:00,
2013-02-20 01:30:00,22.5,17.8,29.74,NE,45,0.4,1.6,82,0.00,,,0.00,WUHU216HW,2013-02-20 08:30:00,
2013-02-20 01:35:00,22.3,17.6,29.74,NNE,23,1.6,1.6,82,0.00,,,0.00,WUHU216HW,2013-02-20 08:35:00,
2013-02-20 01:40:00,22.1,17.5,29.74,NE,45,2.7,2.7,82,0.00,,,0.00,WUHU216HW,2013-02-20 08:40:00,
2013-02-20 01:45:00,22.3,17.6,29.74,ENE,68,1.3,2.7,82,0.00,,,0.00,WUHU216HW,2013-02-20 08:45:00,
2013-02-20 01:50:00,22.5,17.8,29.75,East,90,1.6,2.5,82,0.00,,,0.00,WUHU216HW,2013-02-20 08:50:00,
2013-02-20 01:55:00,22.3,17.6,29.75,ENE,68,1.3,2.0,82,0.00,,,0.00,WUHU216HW,2013-02-20 08:55:00,
2013-02-20 02:00:00,22.1,17.5,29.75,ENE,68,2.5,3.1,82,0.00,,,0.00,WUHU216HW,2013-02-20 09:00:00,
2013-02-20 02:05:00,22.0,17.3,29.75,East,90,2.5,3.4,82,0.00,,,0.00,WUHU216HW,2013-02-20 09:05:00,
2013-02-20 02:10:00,22.0,17.3,29.75,ESE,113,0.0,3.4,82,0.00,,,0.00,WUHU216HW,2013-02-20 09:10:00,
2013-02-20 02:15:00,22.0,17.3,29.75,NE,45,0.0,3.4,82,0.00,,,0.00,WUHU216HW,2013-02-20 09:15:00,
2013-02-20 02:20:00,22.0,17.6,29.75,NNE,23,0.2,1.8,83,0.00,,,0.00,WUHU216HW,2013-02-20 09:20:00,
2013-02-20 02:25:00,22.0,17.6,29.75,NNE,23,1.1,1.3,83,0.00,,,0.00,WUHU216HW,2013-02-20 09:25:00,
2013-02-20 02:30:00,22.0,17.3,29.75,NNE,23,0.2,1.1,82,0.00,,,0.00,WUHU216HW,2013-02-20 09:30:00,
2013-02-20 02:35:00,21.8,17.1,29.75,North,0,0.0,1.1,82,0.00,,,0.00,WUHU216HW,2013-02-20 09:35:00,
2013-02-20 02:40:00,21.6,16.9,29.75,North,0,0.0,0.9,82,0.00,,,0.00,WUHU216HW,2013-02-20 09:40:00,
2013-02-20 02:45:00,21.2,16.6,29.75,NNE,23,0.0,0.7,82,0.00,,,0.00,WUHU216HW,2013-02-20 09:45:00,
2013-02-20 02:50:00,21.2,16.6,29.75,ENE,68,0.4,1.1,82,0.00,,,0.00,WUHU216HW,2013-02-20 09:50:00,
2013-02-20 02:55:00,20.9,16.2,29.75,ENE,68,1.1,1.1,82,0.00,,,0.00,WUHU216HW,2013-02-20 09:55:00,
2013-02-20 03:00:00,20.9,16.5,29.75,ENE,68,1.3,1.6,83,0.00,,,0.00,WUHU216HW,2013-02-20 10:00:00,
2013-02-20 03:05:00,20.9,16.5,29.75,ENE,68,2.2,2.2,83,0.00,,,0.00,WUHU216HW,2013-02-20 10:05:00,
2013-02-20 03:10:00,21.1,16.7,29.75,ENE,68,2.2,2.5,83,0.00,,,0.00,WUHU216HW,2013-02-20 10:10:00,
2013-02-20 03:15:00,20.9,16.5,29.75,ENE,68,0.4,2.5,83,0.00,,,0.00,WUHU216HW,2013-02-20 10:15:00,
2013-02-20 03:20:00,20.9,16.5,29.75,ENE,68,2.5,2.5,83,0.00,,,0.00,WUHU216HW,2013-02-20 10:20:00,
2013-02-20 03:25:00,20.9,16.5,29.75,NE,45,3.8,3.8,83,0.00,,,0.00,WUHU216HW,2013-02-20 10:25:00,
2013-02-20 03:30:00,20.9,16.5,29.75,East,90,0.0,3.8,83,0.00,,,0.00,WUHU216HW,2013-02-20 10:30:00,
2013-02-20 03:35:00,20.9,16.5,29.75,NE,45,1.8,2.2,83,0.00,,,0.00,WUHU216HW,2013-02-20 10:35:00,
2013-02-20 03:40:00,20.9,16.5,29.75,NE,45,2.5,2.5,83,0.00,,,0.00,WUHU216HW,2013-02-20 10:40:00,
2013-02-20 03:45:00,20.9,16.5,29.75,NE,45,0.4,2.5,83,0.00,,,0.00,WUHU216HW,2013-02-20 10:45:00,
2013-02-20 03:50:00,20.9,16.5,29.75,NE,45,1.3,2.5,83,0.00,,,0.00,WUHU216HW,2013-02-20 10:50:00,
2013-02-20 03:55:00,20.9,16.5,29.75,NE,45,0.4,1.8,83,0.00,,,0.00,WUHU216HW,2013-02-20 10:55:00,
2013-02-20 04:00:00,20.7,16.0,29.75,NE,45,0.4,1.8,82,0.00,,,0.00,WUHU216HW,2013-02-20 11:00:00,
2013-02-20 04:05:00,20.5,15.8,29.75,NE,45,0.0,1.1,82,0.00,,,0.00,WUHU216HW,2013-02-20 11:05:00,
2013-02-20 04:10:00,20.5,15.8,29.75,NNE,23,0.4,1.1,82,0.00,,,0.00,WUHU216HW,2013-02-20 11:10:00,
2013-02-20 04:15:00,20.3,15.9,29.75,NNE,23,0.4,1.1,83,0.00,,,0.00,WUHU216HW,2013-02-20 11:15:00,
2013-02-20 04:20:00,20.3,15.7,29.75,NE,45,1.1,1.1,82,0.00,,,0.00,WUHU216HW,2013-02-20 11:20:00,
2013-02-20 04:25:00,20.3,15.9,29.75,NE,45,1.1,2.2,83,0.00,,,0.00,WUHU216HW,2013-02-20 11:25:00,
2013-02-20 04:30:00,20.3,15.7,29.75,NNE,23,0.4,2.2,82,0.00,,,0.00,WUHU216HW,2013-02-20 11:30:00,
2013-02-20 04:35:00,20.2,15.5,29.76,NNE,23,0.7,1.3,82,0.00,,,0.00,WUHU216HW,2013-02-20 11:35:00,
2013-02-20 04:40:00,20.2,15.8,29.76,NNE,23,0.4,1.1,83,0.00,,,0.00,WUHU216HW,2013-02-20 11:40:00,
2013-02-20 04:45:00,20.3,15.7,29.76,ENE,68,1.8,2.0,82,0.00,,,0.00,WUHU216HW,2013-02-20 11:45:00,
2013-02-20 04:50:00,20.5,15.8,29.76,NE,45,1.1,2.0,82,0.00,,,0.00,WUHU216HW,2013-02-20 11:50:00,
2013-02-20 04:55:00,20.7,16.3,29.77,NE,45,1.6,2.0,83,0.00,,,0.00,WUHU216HW,2013-02-20 11:55:00,
2013-02-20 05:00:00,20.5,15.8,29.77,ENE,68,2.5,2.7,82,0.00,,,0.00,WUHU216HW,2013-02-20 12:00:00,
2013-02-20 05:05:00,20.5,15.8,29.77,NE,45,2.2,3.1,82,0.00,,,0.00,WUHU216HW,2013-02-20 12:05:00,
2013-02-20 05:10:00,20.5,15.8,29.77,ENE,68,3.1,3.1,82,0.00,,,0.00,WUHU216HW,2013-02-20 12:10:00,
2013-02-20 05:15:00,20.5,16.1,29.77,NE,45,2.2,3.1,83,0.00,,,0.00,WUHU216HW,2013-02-20 12:15:00,
2013-02-20 05:20:00,20.7,16.6,29.77,NE,45,1.8,2.7,84,0.00,,,0.00,WUHU216HW,2013-02-20 12:20:00,
2013-02-20 05:25:00,20.7,16.3,29.77,NE,45,0.7,1.8,83,0.00,,,0.00,WUHU216HW,2013-02-20 12:25:00,
2013-02-20 05:30:00,20.9,16.5,29.77,NE,45,1.1,1.8,83,0.00,,,0.00,WUHU216HW,2013-02-20 12:30:00,
2013-02-20 05:35:00,21.1,16.7,29.77,NE,45,0.9,2.0,83,0.00,,,0.00,WUHU216HW,2013-02-20 12:35:00,
2013-02-20 05:40:00,21.1,16.7,29.77,NNE,23,0.4,2.0,83,0.00,,,0.00,WUHU216HW,2013-02-20 12:40:00,
2013-02-20 05:45:00,21.1,16.9,29.78,NE,45,0.4,0.9,84,0.00,,,0.00,WUHU216HW,2013-02-20 12:45:00,
2013-02-20 05:50:00,21.1,16.7,29.78,NE,45,1.1,1.8,83,0.00,,,0.00,WUHU216HW,2013-02-20 12:50:00,
2013-02-20 05:55:00,21.2,17.1,29.78,ENE,68,1.8,3.4,84,0.00,,,0.00,WUHU216HW,2013-02-20 12:55:00,
2013-02-20 06:00:00,21.4,17.3,29.78,ENE,68,3.6,3.6,84,0.00,,,0.00,WUHU216HW,2013-02-20 13:00:00,
2013-02-20 06:05:00,21.4,17.3,29.78,East,90,2.2,3.8,84,0.00,,,0.00,WUHU216HW,2013-02-20 13:05:00,
2013-02-20 06:10:00,21.6,17.5,29.78,ENE,68,1.8,3.8,84,0.00,,,0.00,WUHU216HW,2013-02-20 13:10:00,
2013-02-20 06:15:00,22.0,17.8,29.78,NE,45,1.6,2.5,84,0.00,,,0.00,WUHU216HW,2013-02-20 13:15:00,
2013-02-20 06:20:00,22.0,17.6,29.78,ENE,68,2.7,2.7,83,0.00,,,0.00,WUHU216HW,2013-02-20 13:20:00,
2013-02-20 06:25:00,22.0,17.8,29.78,North,0,1.3,2.7,84,0.00,,,0.00,WUHU216HW,2013-02-20 13:25:00,
2013-02-20 06:30:00,21.8,17.6,29.78,NE,45,1.1,2.2,84,0.00,,,0.00,WUHU216HW,2013-02-20 13:30:00,
2013-02-20 06:35:00,21.6,17.5,29.78,NNE,23,0.4,1.8,84,0.00,,,0.00,WUHU216HW,2013-02-20 13:35:00,
2013-02-20 06:40:00,21.4,17.3,29.78,NNE,23,0.0,1.1,84,0.00,,,0.00,WUHU216HW,2013-02-20 13:40:00,
2013-02-20 06:45:00,21.4,17.6,29.78,North,0,0.4,1.1,85,0.00,,,0.00,WUHU216HW,2013-02-20 13:45:00,
2013-02-20 06:50:00,21.6,17.7,29.79,North,0,1.1,1.6,85,0.00,,,0.00,WUHU216HW,2013-02-20 13:50:00,
2013-02-20 06:55:00,21.4,17.6,29.79,North,0,1.1,1.6,85,0.00,,,0.00,WUHU216HW,2013-02-20 13:55:00,
2013-02-20 07:00:00,21.2,17.4,29.79,North,0,1.1,1.1,85,0.00,,,0.00,WUHU216HW,2013-02-20 14:00:00,
2013-02-20 07:05:00,21.2,17.4,29.79,NE,45,1.8,1.8,85,0.00,,,0.00,WUHU216HW,2013-02-20 14:05:00,
2013-02-20 07:10:00,21.4,17.6,29.79,ENE,68,2.5,2.7,85,0.00,,,0.00,WUHU216HW,2013-02-20 14:10:00,
2013-02-20 07:15:00,21.6,17.7,29.79,NE,45,2.0,2.7,85,0.00,,,0.00,WUHU216HW,2013-02-20 14:15:00,
2013-02-20 07:20:00,21.6,17.5,29.79,ENE,68,4.3,4.3,84,0.00,,,0.00,WUHU216HW,2013-02-20 14:20:00,
2013-02-20 07:25:00,21.6,17.5,29.79,ENE,68,1.1,4.3,84,0.00,,,0.00,WUHU216HW,2013-02-20 14:25:00,
2013-02-20 07:30:00,21.6,17.5,29.80,ENE,68,0.0,3.4,84,0.00,,,0.00,WUHU216HW,2013-02-20 14:30:00,
2013-02-20 07:35:00,21.6,17.5,29.79,ENE,68,0.0,1.1,84,0.00,,,0.00,WUHU216HW,2013-02-20 14:35:00,
2013-02-20 07:40:00,21.6,17.5,29.80,ENE,68,0.0,0.0,84,0.00,,,0.00,WUHU216HW,2013-02-20 14:40:00,
2013-02-20 07:45:00,21.6,17.5,29.80,NW,315,1.8,1.8,84,0.00,,,0.00,WUHU216HW,2013-02-20 14:45:00,
2013-02-20 07:51:00,22.0,18.1,29.80,NNW,338,0.4,1.8,85,0.00,,,0.00,WUHU216HW,2013-02-20 14:51:00,
2013-02-20 07:56:00,22.0,18.1,29.80,North,0,0.9,1.8,85,0.00,,,0.00,WUHU216HW,2013-02-20 14:56:00,
2013-02-20 08:02:00,22.0,18.1,29.80,North,0,0.0,1.1,85,0.00,,,0.00,WUHU216HW,2013-02-20 15:02:00,
2013-02-20 08:07:00,22.1,18.3,29.80,North,0,0.0,1.1,85,0.00,,,0.00,WUHU216HW,2013-02-20 15:07:00,
2013-02-20 08:12:00,22.3,18.2,29.80,North,0,0.0,0.4,84,0.00,,,0.00,WUHU216HW,2013-02-20 15:12:00,
2013-02-20 08:17:00,22.7,18.5,29.80,North,0,0.0,0.0,84,0.00,,,0.00,WUHU216HW,2013-02-20 15:17:00,
2013-02-20 08:22:00,22.7,18.5,29.80,North,0,0.0,0.0,84,0.00,,,0.00,WUHU216HW,2013-02-20 15:22:00,
2013-02-20 08:27:00,22.9,18.5,29.80,North,0,0.0,0.0,83,0.00,,,0.00,WUHU216HW,2013-02-20 15:27:00,
2013-02-20 08:32:00,23.0,18.6,29.81,North,0,0.0,0.0,83,0.00,,,0.00,WUHU216HW,2013-02-20 15:32:00,
2013-02-20 08:37:00,23.4,19.0,29.81,North,0,0.2,0.2,83,0.00,,,0.00,WUHU216HW,2013-02-20 15:37:00,
2013-02-20 08:42:00,23.8,19.4,29.81,North,0,0.2,0.2,83,0.00,,,0.00,WUHU216HW,2013-02-20 15:42:00,
2013-02-20 08:47:00,24.1,19.4,29.81,NNW,338,0.4,0.7,82,0.00,,,0.00,WUHU216HW,2013-02-20 15:47:00,
2013-02-20 08:52:00,24.3,19.6,29.81,NW,315,1.6,1.8,82,0.00,,,0.00,WUHU216HW,2013-02-20 15:52:00,
2013-02-20 08:57:00,24.5,19.5,29.81,NNW,338,2.2,2.7,81,0.00,,,0.00,WUHU216HW,2013-02-20 15:57:00,
2013-02-20 09:03:00,24.8,19.9,29.81,NNW,338,1.1,2.7,81,0.00,,,0.00,WUHU216HW,2013-02-20 16:03:00,
2013-02-20 09:08:00,24.8,19.6,29.81,NW,315,1.3,2.0,80,0.00,,,0.00,WUHU216HW,2013-02-20 16:08:00,
2013-02-20 09:13:00,25.0,19.8,29.81,NNW,338,1.3,3.4,80,0.00,,,0.00,WUHU216HW,2013-02-20 16:13:00,
2013-02-20 09:18:00,25.2,20.0,29.81,North,0,2.0,3.4,80,0.00,,,0.00,WUHU216HW,2013-02-20 16:18:00,
2013-02-20 09:23:00,25.2,20.0,29.81,NNW,338,1.1,3.1,80,0.00,,,0.00,WUHU216HW,2013-02-20 16:23:00,
2013-02-20 09:28:00,25.4,20.1,29.81,North,0,1.8,1.8,80,0.00,,,0.00,WUHU216HW,2013-02-20 16:28:00,
2013-02-20 09:33:00,25.6,20.3,29.81,NW,315,3.1,3.1,80,0.00,,,0.00,WUHU216HW,2013-02-20 16:33:00,
2013-02-20 09:38:00,25.7,20.4,29.81,NW,315,0.4,3.1,80,0.00,,,0.00,WUHU216HW,2013-02-20 16:38:00,
2013-02-20 09:43:00,26.1,20.4,29.81,NNW,338,2.0,2.5,79,0.00,,,0.00,WUHU216HW,2013-02-20 16:43:00,
2013-02-20 09:48:00,26.3,20.9,29.81,NNW,338,0.2,2.0,80,0.00,,,0.00,WUHU216HW,2013-02-20 16:48:00,
2013-02-20 09:53:00,26.6,21.0,29.81,North,0,2.7,2.7,79,0.00,,,0.00,WUHU216HW,2013-02-20 16:53:00,
2013-02-20 09:58:00,26.8,21.2,29.81,North,0,0.0,2.7,79,0.00,,,0.00,WUHU216HW,2013-02-20 16:58:00,
2013-02-20 10:03:00,27.5,21.5,29.81,North,0,1.1,1.8,78,0.00,,,0.00,WUHU216HW,2013-02-20 17:03:00,
2013-02-20 10:08:00,28.1,22.1,29.81,WNW,293,1.1,2.5,78,0.00,,,0.00,WUHU216HW,2013-02-20 17:08:00,
2013-02-20 10:13:00,28.3,22.0,29.81,WNW,293,3.4,3.4,77,0.00,,,0.00,WUHU216HW,2013-02-20 17:13:00,
2013-02-20 10:18:00,28.4,21.8,29.81,WNW,293,1.3,3.4,76,0.00,,,0.00,WUHU216HW,2013-02-20 17:18:00,
2013-02-20 10:23:00,28.6,22.0,29.81,West,270,1.1,3.4,76,0.00,,,0.00,WUHU216HW,2013-02-20 17:23:00,
2013-02-20 10:28:00,28.6,21.7,29.81,West,270,1.6,2.9,75,0.00,,,0.00,WUHU216HW,2013-02-20 17:28:00,
2013-02-20 10:33:00,28.6,22.0,29.81,West,270,1.1,2.7,76,0.00,,,0.00,WUHU216HW,2013-02-20 17:33:00,
2013-02-20 10:38:00,29.3,22.4,29.81,West,270,1.6,2.5,75,0.00,,,0.00,WUHU216HW,2013-02-20 17:38:00,
2013-02-20 10:43:00,29.9,23.2,29.81,West,270,1.8,1.8,76,0.00,,,0.00,WUHU216HW,2013-02-20 17:43:00,
2013-02-20 10:48:00,30.4,23.4,29.81,WSW,248,1.1,2.5,75,0.00,,,0.00,WUHU216HW,2013-02-20 17:48:00,
2013-02-20 10:52:00,30.8,23.4,29.81,WSW,248,1.8,2.5,74,0.00,,,0.00,WUHU216HW,2013-02-20 17:52:00,
2013-02-20 10:57:00,31.0,23.6,29.81,SW,225,0.7,2.5,74,0.00,,,0.00,WUHU216HW,2013-02-20 17:57:00,
2013-02-20 11:03:00,31.3,23.9,29.81,WNW,293,0.0,1.1,74,0.00,,,0.00,WUHU216HW,2013-02-20 18:03:00,
2013-02-20 11:08:00,31.7,24.3,29.81,West,270,0.4,1.8,74,0.00,,,0.00,WUHU216HW,2013-02-20 18:08:00,
2013-02-20 11:13:00,32.2,24.8,29.81,West,270,1.3,1.8,74,0.00,,,0.00,WUHU216HW,2013-02-20 18:13:00,
2013-02-20 11:17:00,32.8,25.0,29.81,West,270,0.2,1.3,73,0.00,,,0.00,WUHU216HW,2013-02-20 18:17:00,
2013-02-20 11:23:00,32.8,24.4,29.81,West,270,2.0,2.5,71,0.00,,,0.00,WUHU216HW,2013-02-20 18:23:00,
2013-02-20 11:28:00,32.8,24.7,29.81,West,270,0.0,2.7,72,0.00,,,0.00,WUHU216HW,2013-02-20 18:28:00,
2013-02-20 11:32:00,32.8,24.7,29.81,ENE,68,0.9,2.7,72,0.00,,,0.00,WUHU216HW,2013-02-20 18:32:00,
2013-02-20 11:37:00,32.8,24.7,29.81,West,270,0.7,2.0,72,0.00,,,0.00,WUHU216HW,2013-02-20 18:37:00,
2013-02-20 11:42:00,32.9,24.8,29.81,West,270,1.3,1.8,72,0.00,,,0.00,WUHU216HW,2013-02-20 18:42:00,
2013-02-20 11:47:00,32.9,24.6,29.81,North,0,0.7,1.8,71,0.00,,,0.00,WUHU216HW,2013-02-20 18:47:00,
2013-02-20 11:52:00,32.8,24.7,29.81,NW,315,1.6,2.5,72,0.00,,,0.00,WUHU216HW,2013-02-20 18:52:00,
2013-02-20 11:57:00,32.8,25.0,29.81,NW,315,0.4,2.5,73,0.00,,,0.00,WUHU216HW,2013-02-20 18:57:00,
2013-02-20 12:02:00,32.6,24.8,29.81,NW,315,3.1,3.1,73,0.00,,,0.00,WUHU216HW,2013-02-20 19:02:00,
2013-02-20 12:07:00,32.8,25.4,29.81,WNW,293,0.0,3.1,74,0.00,,,0.00,WUHU216HW,2013-02-20 19:07:00,
2013-02-20 12:12:00,32.8,25.7,29.80,WNW,293,2.2,3.1,75,0.00,,,0.00,WUHU216HW,2013-02-20 19:12:00,
2013-02-20 12:17:00,32.8,25.4,29.80,NW,315,2.5,2.9,74,0.00,,,0.00,WUHU216HW,2013-02-20 19:17:00,
2013-02-20 12:22:00,32.8,26.0,29.80,NNW,338,3.4,4.0,76,0.00,,,0.00,WUHU216HW,2013-02-20 19:22:00,
2013-02-20 12:27:00,32.4,25.7,29.80,NNW,338,2.2,4.0,76,0.00,,,0.00,WUHU216HW,2013-02-20 19:27:00,
2013-02-20 12:32:00,32.0,25.7,29.80,NNW,338,2.7,5.1,77,0.00,,,0.00,WUHU216HW,2013-02-20 19:32:00,
2013-02-20 12:38:00,31.9,25.8,29.80,NW,315,3.6,5.1,78,0.00,,,0.00,WUHU216HW,2013-02-20 19:38:00,
2013-02-20 12:43:00,31.9,25.8,29.80,NNW,338,1.8,4.7,78,0.00,,,0.00,WUHU216HW,2013-02-20 19:43:00,
2013-02-20 12:47:00,31.9,25.8,29.80,NW,315,5.4,5.4,78,0.00,,,0.00,WUHU216HW,2013-02-20 19:47:00,
2013-02-20 12:52:00,31.7,25.7,29.80,NW,315,5.4,5.4,78,0.00,,,0.00,WUHU216HW,2013-02-20 19:52:00,
2013-02-20 12:57:00,31.9,26.1,29.80,NW,315,3.6,5.4,79,0.00,,,0.00,WUHU216HW,2013-02-20 19:57:00,
2013-02-20 13:02:00,31.7,25.9,29.80,NNW,338,2.2,5.6,79,0.00,,,0.00,WUHU216HW,2013-02-20 20:02:00,
2013-02-20 13:07:00,31.9,26.1,29.80,NNW,338,3.4,5.6,79,0.00,,,0.00,WUHU216HW,2013-02-20 20:07:00,
2013-02-20 13:12:00,31.9,26.1,29.80,NNW,338,3.4,5.6,79,0.00,,,0.00,WUHU216HW,2013-02-20 20:12:00,
2013-02-20 13:17:00,31.7,26.3,29.80,NW,315,5.1,5.1,80,0.00,,,0.00,WUHU216HW,2013-02-20 20:17:00,
2013-02-20 13:22:00,32.0,26.6,29.79,NW,315,3.6,6.7,80,0.00,,,0.00,WUHU216HW,2013-02-20 20:22:00,
2013-02-20 13:28:00,32.0,26.6,29.79,NW,315,4.0,6.7,80,0.00,,,0.00,WUHU216HW,2013-02-20 20:28:00,
2013-02-20 13:32:00,32.2,26.8,29.79,NW,315,3.1,5.4,80,0.00,,,0.00,WUHU216HW,2013-02-20 20:32:00,
2013-02-20 13:37:00,32.2,26.8,29.79,NW,315,4.5,5.4,80,0.00,,,0.00,WUHU216HW,2013-02-20 20:37:00,
2013-02-20 13:42:00,32.2,26.5,29.79,NNW,338,2.5,4.7,79,0.00,,,0.00,WUHU216HW,2013-02-20 20:42:00,
2013-02-20 13:47:00,32.4,27.0,29.79,NNW,338,2.7,3.4,80,0.00,,,0.00,WUHU216HW,2013-02-20 20:47:00,
2013-02-20 13:52:00,32.8,27.0,29.79,NNW,338,2.5,3.4,79,0.00,,,0.00,WUHU216HW,2013-02-20 20:52:00,
2013-02-20 13:57:00,32.4,27.0,29.79,NW,315,2.5,4.0,80,0.00,,,0.00,WUHU216HW,2013-02-20 20:57:00,
2013-02-20 14:02:00,32.4,27.0,29.78,NW,315,3.4,4.0,80,0.00,,,0.00,WUHU216HW,2013-02-20 21:02:00,
2013-02-20 14:08:00,32.4,27.0,29.78,NW,315,2.5,4.3,80,0.00,,,0.00,WUHU216HW,2013-02-20 21:08:00,
2013-02-20 14:13:00,32.8,27.3,29.78,NNW,338,3.4,4.3,80,0.00,,,0.00,WUHU216HW,2013-02-20 21:13:00,
2013-02-20 14:18:00,32.8,27.3,29.79,NNW,338,2.9,4.0,80,0.00,,,0.00,WUHU216HW,2013-02-20 21:18:00,
2013-02-20 14:23:00,32.8,27.3,29.78,NNW,338,3.8,4.7,80,0.00,,,0.00,WUHU216HW,2013-02-20 21:23:00,
2013-02-20 14:28:00,32.8,27.3,29.78,NNW,338,2.7,4.7,80,0.00,,,0.00,WUHU216HW,2013-02-20 21:28:00,
2013-02-20 14:32:00,32.4,27.3,29.78,North,0,3.4,3.4,81,0.00,,,0.00,WUHU216HW,2013-02-20 21:32:00,
2013-02-20 14:37:00,32.6,27.1,29.78,NNW,338,2.2,3.4,80,0.00,,,0.00,WUHU216HW,2013-02-20 21:37:00,
2013-02-20 14:42:00,32.6,27.1,29.78,NW,315,3.4,3.4,80,0.00,,,0.00,WUHU216HW,2013-02-20 21:42:00,
2013-02-20 14:47:00,32.8,27.3,29.78,NW,315,3.1,3.8,80,0.00,,,0.00,WUHU216HW,2013-02-20 21:47:00,
2013-02-20 14:52:00,32.8,27.3,29.78,NW,315,3.1,3.8,80,0.00,,,0.00,WUHU216HW,2013-02-20 21:52:00,
2013-02-20 14:57:00,32.9,27.5,29.78,NW,315,4.0,4.0,80,0.00,,,0.00,WUHU216HW,2013-02-20 21:57:00,
2013-02-20 15:03:00,33.1,27.6,29.78,NW,315,2.7,4.5,80,0.00,,,0.00,WUHU216HW,2013-02-20 22:03:00,
2013-02-20 15:08:00,32.9,27.5,29.78,NW,315,3.6,4.5,80,0.00,,,0.00,WUHU216HW,2013-02-20 22:08:00,
2013-02-20 15:13:00,32.9,27.5,29.78,NNW,338,4.0,4.0,80,0.00,,,0.00,WUHU216HW,2013-02-20 22:13:00,
2013-02-20 15:18:00,33.1,27.6,29.78,North,0,2.5,4.0,80,0.00,,,0.00,WUHU216HW,2013-02-20 22:18:00,
2013-02-20 15:23:00,33.1,27.3,29.78,NNW,338,2.9,4.7,79,0.00,,,0.00,WUHU216HW,2013-02-20 22:23:00,
2013-02-20 15:28:00,32.9,27.5,29.78,NNW,338,1.8,4.7,80,0.00,,,0.00,WUHU216HW,2013-02-20 22:28:00,
2013-02-20 15:33:00,32.9,27.5,29.78,NNW,338,1.8,3.4,80,0.00,,,0.00,WUHU216HW,2013-02-20 22:33:00,
2013-02-20 15:38:00,33.1,27.6,29.78,NW,315,3.8,3.8,80,0.00,,,0.00,WUHU216HW,2013-02-20 22:38:00,
2013-02-20 15:43:00,32.9,27.5,29.78,WNW,293,3.1,4.0,80,0.00,,,0.00,WUHU216HW,2013-02-20 22:43:00,
2013-02-20 15:48:00,32.9,27.5,29.78,North,0,2.7,4.0,80,0.00,,,0.00,WUHU216HW,2013-02-20 22:48:00,
2013-02-20 15:53:00,32.9,27.5,29.78,WNW,293,3.1,3.6,80,0.00,,,0.00,WUHU216HW,2013-02-20 22:53:00,
2013-02-20 15:58:00,32.9,27.5,29.78,WNW,293,1.8,3.6,80,0.00,,,0.00,WUHU216HW,2013-02-20 22:58:00,
2013-02-20 16:03:00,32.9,27.7,29.78,NW,315,2.5,3.4,81,0.00,,,0.00,WUHU216HW,2013-02-20 23:03:00,
2013-02-20 16:08:00,33.1,27.6,29.78,West,270,3.8,3.8,80,0.00,,,0.00,WUHU216HW,2013-02-20 23:08:00,
2013-02-20 16:13:00,33.1,27.6,29.78,West,270,2.0,3.8,80,0.00,,,0.00,WUHU216HW,2013-02-20 23:13:00,
2013-02-20 16:18:00,33.1,27.6,29.78,NW,315,0.9,3.6,80,0.00,,,0.00,WUHU216HW,2013-02-20 23:18:00,
2013-02-20 16:23:00,33.3,27.8,29.78,WNW,293,2.0,2.5,80,0.00,,,0.00,WUHU216HW,2013-02-20 23:23:00,
2013-02-20 16:28:00,33.5,27.9,29.78,West,270,1.1,2.5,80,0.00,,,0.00,WUHU216HW,2013-02-20 23:28:00,
2013-02-20 16:33:00,33.5,27.9,29.78,WNW,293,1.3,2.0,80,0.00,,,0.00,WUHU216HW,2013-02-20 23:33:00,
2013-02-20 16:38:00,33.5,27.9,29.78,WSW,248,1.3,2.0,80,0.00,,,0.00,WUHU216HW,2013-02-20 23:38:00,
2013-02-20 16:43:00,33.5,27.9,29.79,WSW,248,1.1,2.0,80,0.00,,,0.00,WUHU216HW,2013-02-20 23:43:00,
2013-02-20 16:48:00,33.7,28.1,29.79,West,270,1.8,2.5,80,0.00,,,0.00,WUHU216HW,2013-02-20 23:48:00,
2013-02-20 16:53:00,33.5,27.9,29.79,WNW,293,1.3,2.5,80,0.00,,,0.00,WUHU216HW,2013-02-20 23:53:00,
2013-02-20 16:58:00,33.3,27.5,29.79,WNW,293,0.4,2.5,79,0.00,,,0.00,WUHU216HW,2013-02-20 23:58:00,
2013-02-20 17:03:00,33.1,27.3,29.79,WNW,293,0.0,1.3,79,0.00,,,0.00,WUHU216HW,2013-02-21 00:03:00,
2013-02-20 17:08:00,33.3,27.5,29.79,West,270,0.2,0.7,79,0.00,,,0.00,WUHU216HW,2013-02-21 00:08:00,
2013-02-20 17:13:00,33.1,27.3,29.79,West,270,0.0,0.7,79,0.00,,,0.00,WUHU216HW,2013-02-21 00:13:00,
2013-02-20 17:18:00,33.1,27.6,29.79,West,270,0.0,0.0,80,0.00,,,0.00,WUHU216HW,2013-02-21 00:18:00,
2013-02-20 17:23:00,33.1,27.6,29.79,West,270,0.0,0.0,80,0.00,,,0.00,WUHU216HW,2013-02-21 00:23:00,
2013-02-20 17:28:00,32.9,27.5,29.79,West,270,0.0,0.0,80,0.00,,,0.00,WUHU216HW,2013-02-21 00:28:00,
2013-02-20 17:33:00,32.8,27.3,29.80,West,270,0.0,0.0,80,0.00,,,0.00,WUHU216HW,2013-02-21 00:33:00,
2013-02-20 17:38:00,32.8,27.3,29.80,SSE,158,0.7,1.3,80,0.00,,,0.00,WUHU216HW,2013-02-21 00:38:00,
2013-02-20 17:43:00,32.4,27.0,29.80,SSE,158,0.0,1.3,80,0.00,,,0.00,WUHU216HW,2013-02-21 00:43:00,
2013-02-20 17:48:00,32.2,26.8,29.80,SSE,158,1.1,1.1,80,0.00,,,0.00,WUHU216HW,2013-02-21 00:48:00,
2013-02-20 17:53:00,32.0,26.9,29.80,SSE,158,0.4,1.1,81,0.00,,,0.00,WUHU216HW,2013-02-21 00:53:00,
2013-02-20 17:58:00,31.9,26.5,29.80,SSE,158,0.4,0.7,80,0.00,,,0.00,WUHU216HW,2013-02-21 00:58:00,
2013-02-20 18:03:00,31.7,26.6,29.80,SSW,203,0.9,1.6,81,0.00,,,0.00,WUHU216HW,2013-02-21 01:03:00,
2013-02-20 18:08:00,31.7,26.6,29.80,SSW,203,0.9,1.6,81,0.00,,,0.00,WUHU216HW,2013-02-21 01:08:00,
2013-02-20 18:13:00,31.7,26.6,29.80,SSE,158,0.0,1.1,81,0.00,,,0.00,WUHU216HW,2013-02-21 01:13:00,
2013-02-20 18:18:00,31.5,26.4,29.81,SSE,158,0.0,1.1,81,0.00,,,0.00,WUHU216HW,2013-02-21 01:18:00,
2013-02-20 18:23:00,31.5,26.6,29.81,SSE,158,0.0,0.4,82,0.00,,,0.00,WUHU216HW,2013-02-21 01:23:00,
2013-02-20 18:28:00,31.3,26.5,29.81,SSE,158,0.9,0.9,82,0.00,,,0.00,WUHU216HW,2013-02-21 01:28:00,
2013-02-20 18:33:00,31.3,26.8,29.81,SW,225,1.1,1.1,83,0.00,,,0.00,WUHU216HW,2013-02-21 01:33:00,
2013-02-20 18:38:00,31.1,26.7,29.81,SSW,203,1.1,1.3,83,0.00,,,0.00,WUHU216HW,2013-02-21 01:38:00,
2013-02-20 18:43:00,31.1,26.7,29.81,South,180,0.4,1.3,83,0.00,,,0.00,WUHU216HW,2013-02-21 01:43:00,
2013-02-20 18:48:00,31.1,26.7,29.81,SSW,203,1.3,1.3,83,0.00,,,0.00,WUHU216HW,2013-02-21 01:48:00,
2013-02-20 18:53:00,31.0,26.5,29.82,SSW,203,1.1,1.6,83,0.00,,,0.00,WUHU216HW,2013-02-21 01:53:00,
2013-02-20 18:58:00,31.0,26.5,29.82,SSE,158,1.1,1.6,83,0.00,,,0.00,WUHU216HW,2013-02-21 01:58:00,
2013-02-20 19:03:00,31.0,26.5,29.82,SSE,158,0.7,1.1,83,0.00,,,0.00,WUHU216HW,2013-02-21 02:03:00,
2013-02-20 19:08:00,31.0,26.5,29.82,SSE,158,0.0,1.3,83,0.00,,,0.00,WUHU216HW,2013-02-21 02:08:00,
2013-02-20 19:13:00,31.0,26.7,29.82,SSE,158,0.9,1.3,84,0.00,,,0.00,WUHU216HW,2013-02-21 02:13:00,
2013-02-20 19:18:00,31.0,26.7,29.82,SSE,158,0.0,0.9,84,0.00,,,0.00,WUHU216HW,2013-02-21 02:18:00,
2013-02-20 19:23:00,31.0,26.7,29.82,SSE,158,0.4,0.7,84,0.00,,,0.00,WUHU216HW,2013-02-21 02:23:00,
2013-02-20 19:28:00,31.0,27.0,29.82,SSE,158,0.0,0.4,85,0.00,,,0.00,WUHU216HW,2013-02-21 02:28:00,
2013-02-20 19:33:00,30.8,26.8,29.83,SSE,158,0.2,0.4,85,0.00,,,0.00,WUHU216HW,2013-02-21 02:33:00,
2013-02-20 19:38:00,30.8,26.8,29.82,SSE,158,0.9,0.9,85,0.00,,,0.00,WUHU216HW,2013-02-21 02:38:00,
2013-02-20 19:43:00,30.6,26.6,29.83,West,270,0.9,1.8,85,0.00,,,0.00,WUHU216HW,2013-02-21 02:43:00,
2013-02-20 19:48:00,30.6,26.6,29.83,West,270,0.4,1.8,85,0.00,,,0.00,WUHU216HW,2013-02-21 02:48:00,
2013-02-20 19:53:00,30.6,26.6,29.82,West,270,0.4,1.1,85,0.00,,,0.00,WUHU216HW,2013-02-21 02:53:00,
2013-02-20 19:58:00,30.4,26.5,29.83,West,270,0.4,0.4,85,0.00,,,0.00,WUHU216HW,2013-02-21 02:58:00,
2013-02-20 20:03:00,30.4,26.5,29.83,West,270,0.4,1.1,85,0.00,,,0.00,WUHU216HW,2013-02-21 03:03:00,
2013-02-20 20:08:00,30.2,26.3,29.83,West,270,0.4,1.1,85,0.00,,,0.00,WUHU216HW,2013-02-21 03:08:00,
2013-02-20 20:13:00,30.1,26.4,29.83,West,270,0.0,0.9,86,0.00,,,0.00,WUHU216HW,2013-02-21 03:13:00,
2013-02-20 20:18:00,30.1,26.4,29.83,West,270,0.0,0.9,86,0.00,,,0.00,WUHU216HW,2013-02-21 03:18:00,
2013-02-20 20:23:00,30.1,26.4,29.83,WSW,248,0.0,0.0,86,0.00,,,0.00,WUHU216HW,2013-02-21 03:23:00,
2013-02-20 20:28:00,29.9,26.2,29.83,WSW,248,0.0,0.0,86,0.00,,,0.00,WUHU216HW,2013-02-21 03:28:00,
2013-02-20 20:33:00,29.9,26.2,29.83,WSW,248,0.4,1.1,86,0.00,,,0.00,WUHU216HW,2013-02-21 03:33:00,
2013-02-20 20:38:00,29.9,26.2,29.83,WSW,248,0.2,1.1,86,0.00,,,0.00,WUHU216HW,2013-02-21 03:38:00,
2013-02-20 20:43:00,29.9,26.2,29.83,WSW,248,0.0,0.7,86,0.00,,,0.00,WUHU216HW,2013-02-21 03:43:00,
2013-02-20 20:48:00,29.9,26.2,29.83,WSW,248,0.0,0.4,86,0.00,,,0.00,WUHU216HW,2013-02-21 03:48:00,
2013-02-20 20:53:00,29.9,26.2,29.83,South,180,0.4,0.4,86,0.00,,,0.00,WUHU216HW,2013-02-21 03:53:00,
2013-02-20 20:58:00,29.9,26.2,29.83,South,180,0.0,0.4,86,0.00,,,0.00,WUHU216HW,2013-02-21 03:58:00,
2013-02-20 21:03:00,29.9,26.2,29.83,South,180,0.0,0.4,86,0.00,,,0.00,WUHU216HW,2013-02-21 04:03:00,
2013-02-20 21:08:00,29.9,26.2,29.83,South,180,0.0,0.0,86,0.00,,,0.00,WUHU216HW,2013-02-21 04:08:00,
2013-02-20 21:13:00,29.7,26.0,29.83,South,180,0.0,0.0,86,0.00,,,0.00,WUHU216HW,2013-02-21 04:13:00,
2013-02-20 21:18:00,29.5,25.8,29.84,South,180,0.0,0.0,86,0.00,,,0.00,WUHU216HW,2013-02-21 04:18:00,
2013-02-20 21:23:00,29.5,25.8,29.84,South,180,0.0,0.0,86,0.00,,,0.00,WUHU216HW,2013-02-21 04:23:00,
2013-02-20 21:28:00,29.3,25.7,29.84,South,180,0.2,0.7,86,0.00,,,0.00,WUHU216HW,2013-02-21 04:28:00,
2013-02-20 21:33:00,29.3,25.9,29.84,South,180,0.7,0.7,87,0.00,,,0.00,WUHU216HW,2013-02-21 04:33:00,
2013-02-20 21:38:00,29.3,25.9,29.84,South,180,0.0,0.7,87,0.00,,,0.00,WUHU216HW,2013-02-21 04:38:00,
2013-02-20 21:43:00,29.2,25.7,29.84,South,180,0.0,0.4,87,0.00,,,0.00,WUHU216HW,2013-02-21 04:43:00,
2013-02-20 21:48:00,29.2,25.5,29.84,South,180,0.4,0.9,86,0.00,,,0.00,WUHU216HW,2013-02-21 04:48:00,
2013-02-20 21:53:00,29.0,25.3,29.84,South,180,0.0,0.9,86,0.00,,,0.00,WUHU216HW,2013-02-21 04:53:00,
2013-02-20 21:58:00,29.0,25.3,29.84,South,180,0.4,0.4,86,0.00,,,0.00,WUHU216HW,2013-02-21 04:58:00,
2013-02-20 22:00:00,29.0,25.3,29.84,South,180,0.4,0.4,86,0.00,,,0.00,WUHU216HW,2013-02-21 05:00:00,
2013-02-20 22:05:00,28.8,25.1,29.85,South,180,0.0,0.4,86,0.00,,,0.00,WUHU216HW,2013-02-21 05:05:00,
2013-02-20 22:10:00,28.8,25.1,29.85,South,180,0.0,0.4,86,0.00,,,0.00,WUHU216HW,2013-02-21 05:10:00,
2013-02-20 22:15:00,28.6,24.9,29.85,South,180,0.0,0.4,86,0.00,,,0.00,WUHU216HW,2013-02-21 05:15:00,
2013-02-20 22:20:00,28.6,24.9,29.85,South,180,0.0,0.4,86,0.00,,,0.00,WUHU216HW,2013-02-21 05:20:00,
2013-02-20 22:25:00,28.6,24.9,29.85,South,180,0.0,0.0,86,0.00,,,0.00,WUHU216HW,2013-02-21 05:25:00,
2013-02-20 22:30:00,28.6,24.9,29.85,South,180,0.0,0.0,86,0.00,,,0.00,WUHU216HW,2013-02-21 05:30:00,
2013-02-20 22:35:00,28.4,24.8,29.85,South,180,0.9,0.9,86,0.00,,,0.00,WUHU216HW,2013-02-21 05:35:00,
2013-02-20 22:40:00,28.4,24.8,29.85,South,180,0.4,1.1,86,0.00,,,0.00,WUHU216HW,2013-02-21 05:40:00,
2013-02-20 22:45:00,28.3,24.6,29.85,South,180,0.0,1.1,86,0.00,,,0.00,WUHU216HW,2013-02-21 05:45:00,
2013-02-20 22:50:00,28.3,24.6,29.86,South,180,0.0,0.4,86,0.00,,,0.00,WUHU216HW,2013-02-21 05:50:00,
2013-02-20 22:55:00,28.3,24.6,29.86,South,180,0.7,0.7,86,0.00,,,0.00,WUHU216HW,2013-02-21 05:55:00,
2013-02-20 23:00:00,28.3,24.8,29.86,South,180,0.0,0.7,87,0.00,,,0.00,WUHU216HW,2013-02-21 06:00:00,
2013-02-20 23:05:00,28.4,25.0,29.86,South,180,0.0,0.7,87,0.00,,,0.00,WUHU216HW,2013-02-21 06:05:00,
2013-02-20 23:10:00,28.4,25.0,29.86,South,180,0.7,0.9,87,0.00,,,0.00,WUHU216HW,2013-02-21 06:10:00,
2013-02-20 23:15:00,28.4,25.0,29.86,South,180,0.7,0.9,87,0.00,,,0.00,WUHU216HW,2013-02-21 06:15:00,
2013-02-20 23:20:00,28.4,25.0,29.86,South,180,0.9,0.9,87,0.00,,,0.00,WUHU216HW,2013-02-21 06:20:00,
2013-02-20 23:25:00,28.4,25.0,29.86,South,180,1.3,1.8,87,0.00,,,0.00,WUHU216HW,2013-02-21 06:25:00,
2013-02-20 23:30:00,28.3,24.8,29.86,South,180,1.3,1.8,87,0.00,,,0.00,WUHU216HW,2013-02-21 06:30:00,
2013-02-20 23:35:00,28.1,24.7,29.86,South,180,0.0,1.8,87,0.00,,,0.00,WUHU216HW,2013-02-21 06:35:00,
2013-02-20 23:40:00,27.9,24.5,29.86,South,180,0.4,1.1,87,0.00,,,0.00,WUHU216HW,2013-02-21 06:40:00,
2013-02-20 23:45:00,28.1,24.7,29.86,South,180,1.1,1.1,87,0.00,,,0.00,WUHU216HW,2013-02-21 06:45:00,
2013-02-20 23:50:00,28.3,24.8,29.86,South,180,0.9,1.8,87,0.00,,,0.00,WUHU216HW,2013-02-21 06:50:00,
2013-02-20 23:55:00,28.3,25.2,29.87,South,180,0.9,1.8,88,0.00,,,0.00,WUHU216HW,2013-02-21 06:55:00,